Location: Hungerford
(51.4167°N, 1.5167°W)
Time: 08:21:18
(UTC+00:00)

Cosmos 1048 Rocket - Pass Details

Date: 23 January 2021
Orbit: 744 x 791 km, 74.0° (Epoch: 24 February)

Event Time Altitude Azimuth Distance (km) Brightness Sun altitude
Rises 18:20:07 0° 340° (NNW) 3,198 7.3 -15.3°
Reaches altitude 10° 18:23:02 10° 356° (N) 2,270 6.4 -15.7°
Maximum altitude 18:26:56 21° 46° (NE) 1,626 5.2 -16.3°
Enters shadow 18:26:56 21° 46° (NE) 1,626 5.2 -16.3°
